CW2157 Weather Reports


time (UTC)temp
F
wind
direction
speed
knots
gust
knots
rain 1hr
in
rain 24hr
in
rain mn
in
humidity
%
barometer
mb
20260901060205 76 146 0.0 0.9 0.00 0.00 0.00 91 1015.5
20260901055705 76 146 0.9 1.7 0.00 0.00 0.00 91 1015.5
20260901055204 76 146 0.9 1.7 0.00 0.00 0.00 91 1015.6
20260901054704 76 146 0.0 0.9 0.00 0.00 0.00 90 1015.7
20260901054204 76 146 0.0 1.7 0.00 0.00 0.00 90 1015.7
20260901053705 76 146 0.9 1.7 0.00 0.00 0.00 90 1015.9
20260901053205 76 146 0.0 0.9 0.00 0.00 0.00 90 1015.9
20260901052704 76 146 0.0 1.7 0.00 0.00 0.00 89 1015.8
20260901052205 76 146 0.9 1.7 0.00 0.00 0.00 89 1016.0
20260901051705 76 146 0.9 1.7 0.00 0.00 0.00 89 1015.9
20260901051204 76 146 0.9 1.7 0.00 0.00 0.00 89 1015.9
20260901050705 76 146 0.9 1.7 0.00 0.00 0.00 89 1016.1
20260901050204 76 146 0.0 0.0 0.00 0.00 0.00 89 1016.3
20260901045705 76 146 0.0 0.0 0.00 0.00 0.00 89 1016.4
20260901045204 77 146 0.0 0.0 0.00 0.00 0.00 88 1016.3
20260901044705 77 146 0.9 1.7 0.00 0.00 0.00 88 1016.3
20260901044204 77 146 0.9 1.7 0.00 0.00 0.00 88 1016.4
20260901043205 77 146 0.9 1.7 0.00 0.00 0.00 88 1016.4
20260901042705 77 146 0.9 1.7 0.00 0.00 0.00 88 1016.5
20260901042205 77 146 0.9 1.7 0.00 0.00 0.00 88 1016.4
20260901041704 77 146 0.9 1.7 0.00 0.00 0.00 87 1016.4
20260901041205 77 146 0.9 1.7 0.00 0.00 0.00 87 1016.4
20260901040705 77 146 0.9 1.7 0.00 0.00 0.00 87 1016.4
20260901040204 77 146 0.9 2.6 0.00 0.00 0.00 87 1016.5
20260901035705 78 146 1.7 2.6 0.00 0.00 0.00 87 1016.5
20260901035204 78 169 0.9 2.6 0.00 0.00 0.00 87 1016.5
20260901034705 78 166 0.9 1.7 0.00 0.00 0.00 87 1016.4
20260901034204 78 166 0.0 1.7 0.00 0.00 0.00 87 1016.4
20260901033704 78 136 1.7 2.6 0.00 0.00 0.00 87 1016.4
20260901033204 78 126 0.9 2.6 0.00 0.00 0.00 87 1016.3
20260901032705 78 146 1.7 2.6 0.00 0.00 0.00 87 1016.3
20260901032205 78 153 1.7 4.3 0.00 0.00 0.00 87 1016.3
20260901030705 78 164 2.6 4.3 0.00 0.00 0.00 87 1015.9
20260901030205 78 162 2.6 4.3 0.00 0.00 0.00 86 1015.9
20260901025705 78 174 1.7 4.3 0.00 0.00 0.00 86 1016.0
20260901025205 78 165 2.6 4.3 0.00 0.00 0.00 86 1016.0
20260901024704 78 194 3.5 6.1 0.00 0.00 0.00 86 1016.1
20260901024204 78 183 2.6 7.0 0.00 0.00 0.00 86 1016.0
20260901023705 78 178 2.6 6.1 0.00 0.00 0.00 86 1016.0
20260901023205 78 190 2.6 7.8 0.00 0.00 0.00 86 1016.0
20260901022704 78 172 3.5 5.2 0.00 0.00 0.00 86 1015.9
20260901022204 78 170 3.5 7.0 0.00 0.00 0.00 85 1016.0
20260901021705 78 190 4.3 7.0 0.00 0.00 0.00 85 1016.0
20260901021204 78 191 4.3 7.0 0.00 0.00 0.00 86 1016.0
20260901020705 78 169 3.5 5.2 0.00 0.00 0.00 85 1016.1
20260901020205 78 186 4.3 6.1 0.00 0.00 0.00 85 1016.2
20260901015705 78 167 4.3 7.0 0.00 0.00 0.00 85 1016.3
20260901015204 78 175 4.3 7.0 0.00 0.00 0.00 85 1016.3
20260901014705 78 185 3.5 6.1 0.00 0.00 0.00 85 1016.4
20260901014204 78 163 2.6 6.1 0.00 0.00 0.00 85 1016.5
20260901013705 78 176 4.3 6.1 0.00 0.00 0.00 85 1016.5
20260901013205 78 187 4.3 6.1 0.00 0.00 0.00 85 1016.4
20260901012705 78 178 3.5 7.8 0.00 0.00 0.00 85 1016.4
20260901011204 78 179 2.6 6.1 0.00 0.00 0.00 84 1016.3
20260901010704 78 174 2.6 7.0 0.00 0.00 0.00 85 1016.3
20260901005704 78 139 3.5 7.8 0.00 0.00 0.00 85 1016.3
20260901005204 78 159 4.3 7.0 0.00 0.00 0.00 85 1016.3
20260901004204 79 153 2.6 6.1 0.00 0.00 0.00 84 1016.4
20260901003704 79 172 1.7 5.2 0.00 0.00 0.00 84 1016.4
20260901003204 79 157 2.6 6.1 0.00 0.00 0.00 84 1016.4
20260901002705 79 120 1.7 4.3 0.00 0.00 0.00 84 1016.3
20260901002205 79 137 2.6 6.1 0.00 0.00 0.00 83 1016.2
20260901001705 79 141 1.7 2.6 0.00 0.00 0.00 83 1016.2
20260901001204 79 131 3.5 6.1 0.00 0.00 0.00 83 1016.0
20260901000704 80 168 1.7 5.2 0.00 0.00 0.00 82 1016.1
20260831235205 80 126 2.6 7.0 0.00 0.00 0.00 83 1016.1
20260831234705 80 132 2.6 7.0 0.00 0.00 0.00 83 1016.0
20260831234204 80 125 2.6 5.2 0.00 0.00 0.00 82 1016.2
20260831233704 81 96 3.5 6.1 0.00 0.00 0.00 82 1016.2
20260831233205 81 93 3.5 6.1 0.00 0.00 0.00 84 1016.2
20260831232704 81 106 4.3 11.3 0.00 0.00 0.00 83 1016.3
20260831232204 81 38 1.7 2.6 0.00 0.00 0.00 81 1016.3
20260831231705 82 58 1.7 2.6 0.00 0.00 0.00 81 1016.2
20260831231205 82 100 1.7 2.6 0.00 0.00 0.00 80 1016.3
20260831230705 82 29 0.0 1.7 0.00 0.00 0.00 80 1016.5
20260831230204 82 29 0.0 0.9 0.00 0.00 0.00 81 1016.5
20260831225704 82 29 0.0 0.9 0.00 0.00 0.00 80 1016.5
20260831225205 82 29 0.9 0.9 0.00 0.00 0.00 79 1016.4
20260831224705 83 355 0.0 0.9 0.00 0.00 0.00 79 1016.5
20260831224204 83 348 0.0 0.0 0.00 0.00 0.00 79 1016.5
20260831223704 83 348 0.0 0.0 0.00 0.00 0.00 78 1016.5
20260831223205 83 348 0.0 0.0 0.00 0.00 0.00 78 1016.4
20260831222705 83 348 0.0 0.0 0.00 0.00 0.00 78 1016.5
20260831222205 83 348 0.0 0.0 0.00 0.00 0.00 77 1016.6
20260831221704 84 348 0.0 0.9 0.00 0.00 0.00 76 1016.7
20260831221204 84 348 0.0 1.7 0.00 0.00 0.00 76 1016.8
20260831220704 84 352 0.9 2.6 0.00 0.00 0.00 75 1016.7
20260831220205 85 356 0.0 0.9 0.00 0.00 0.00 75 1016.7
20260831215705 85 348 0.9 1.7 0.00 0.00 0.00 75 1016.7
20260831215204 85 0 1.7 2.6 0.00 0.00 0.00 74 1016.7
20260831214704 85 39 1.7 2.6 0.00 0.00 0.00 74 1016.6
20260831214204 85 33 1.7 4.3 0.00 0.00 0.00 75 1016.7
20260831213704 85 49 1.7 2.6 0.00 0.00 0.00 74 1016.8
20260831211204 86 49 1.7 2.6 0.00 0.00 0.00 72 1016.6
20260831210704 87 56 1.7 2.6 0.00 0.00 0.00 71 1016.5
20260831210205 87 23 1.7 2.6 0.00 0.00 0.00 71 1016.4
20260831205705 87 263 0.9 2.6 0.00 0.00 0.00 69 1016.3
20260831205205 87 72 0.0 1.7 0.00 0.00 0.00 69 1016.3
20260831204704 87 290 0.9 2.6 0.00 0.00 0.00 69 1016.3
20260831203204 87 325 0.9 2.6 0.00 0.00 0.00 71 1016.3
20260831202704 87 29 0.9 2.6 0.00 0.00 0.00 74 1016.3
20260831202204 86 338 0.9 4.3 0.00 0.00 0.00 73 1016.3
20260831201704 86 321 2.6 4.3 0.00 0.00 0.00 73 1016.4
20260831201204 86 233 0.9 2.6 0.00 0.00 0.00 74 1016.4
20260831200204 85 305 1.7 2.6 0.00 0.00 0.00 72 1016.4
20260831195704 85 27 0.9 2.6 0.00 0.00 0.00 73 1016.4
20260831195204 85 31 0.9 2.6 0.00 0.00 0.00 75 1016.4
20260831194704 85 359 2.6 4.3 0.00 0.00 0.00 73 1016.6
20260831194205 85 37 1.7 4.3 0.00 0.00 0.00 73 1016.7
20260831193704 85 358 0.9 2.6 0.00 0.00 0.00 74 1016.8
20260831193204 86 11 2.6 4.3 0.00 0.00 0.00 70 1016.7
20260831192704 86 353 2.6 5.2 0.00 0.00 0.00 71 1016.8
20260831192204 86 14 2.6 5.2 0.00 0.00 0.00 72 1016.8
20260831191704 86 53 1.7 5.2 0.00 0.00 0.00 72 1016.8
20260831191204 87 36 1.7 4.3 0.00 0.00 0.00 72 1016.9
20260831190704 87 50 2.6 4.3 0.00 0.00 0.00 72 1017.0
20260831190205 87 32 2.6 4.3 0.00 0.00 0.00 72 1017.1
20260831185705 87 54 4.3 6.1 0.00 0.00 0.00 74 1017.0
20260831185205 87 52 2.6 5.2 0.00 0.00 0.00 74 1017.0
20260831184705 87 54 2.6 4.3 0.00 0.00 0.00 72 1017.1
20260831184204 87 11 1.7 5.2 0.00 0.00 0.00 71 1017.1
20260831183204 88 299 1.7 4.3 0.00 0.00 0.00 69 1017.0
20260831182704 88 337 2.6 5.2 0.00 0.00 0.00 72 1017.0
20260831182205 88 15 2.6 6.1 0.00 0.00 0.00 74 1017.0
20260831181704 87 352 1.7 2.6 0.00 0.00 0.00 73 1017.0
20260831181204 87 347 2.6 7.8 0.00 0.00 0.00 75 1017.0
20260831180205 87 334 1.7 7.0 0.00 0.00 0.00 72 1017.1
20260831175704 87 16 1.7 8.7 0.00 0.00 0.00 74 1017.2
20260831175204 87 69 5.2 8.7 0.00 0.00 0.00 73 1017.2
20260831174704 87 56 1.7 4.3 0.00 0.00 0.00 73 1017.2
20260831173705 86 28 2.6 5.2 0.00 0.00 0.00 75 1017.2
20260831173204 86 354 1.7 5.2 0.00 0.00 0.00 76 1017.2
20260831172704 86 7 1.7 5.2 0.00 0.00 0.00 74 1017.3
20260831172204 86 49 1.7 5.2 0.00 0.00 0.00 76 1017.3
20260831171205 86 32 2.6 4.3 0.00 0.00 0.00 77 1017.3
20260831170704 86 304 1.7 2.6 0.00 0.00 0.00 73 1017.4
20260831170204 86 358 2.6 5.2 0.00 0.00 0.00 73 1017.5
20260831165704 87 21 3.5 7.0 0.00 0.00 0.00 72 1017.5
20260831165204 87 14 0.9 2.6 0.00 0.00 0.00 70 1017.5
20260831164704 87 77 0.9 2.6 0.00 0.00 0.00 69 1017.5
20260831164204 87 147 0.9 2.6 0.00 0.00 0.00 70 1017.4
20260831163704 87 43 1.7 5.2 0.00 0.00 0.00 70 1017.4
20260831163205 87 61 2.6 6.1 0.00 0.00 0.00 71 1017.4
20260831162204 87 48 2.6 5.2 0.00 0.00 0.00 74 1017.5
20260831161704 86 54 3.5 6.1 0.00 0.00 0.00 74 1017.5
20260831160704 86 46 2.6 7.0 0.00 0.00 0.00 75 1017.6
20260831160204 86 106 4.3 6.1 0.00 0.00 0.00 76 1017.6
20260831155704 85 79 4.3 7.0 0.00 0.00 0.00 75 1017.6
20260831155205 85 73 1.7 5.2 0.00 0.00 0.00 76 1017.7
20260831154204 85 28 3.5 8.7 0.00 0.00 0.00 77 1017.7
20260831153704 85 84 2.6 7.8 0.00 0.00 0.00 77 1017.8
20260831153204 85 53 2.6 7.8 0.00 0.00 0.00 76 1017.7
20260831152204 84 62 5.2 8.7 0.00 0.00 0.00 78 1017.6
20260831151704 84 67 6.1 8.7 0.00 0.00 0.00 79 1017.5
20260831151204 85 82 5.2 8.7 0.00 0.00 0.00 78 1017.5
20260831150704 85 57 5.2 8.7 0.00 0.00 0.00 78 1017.5
20260831150205 84 61 5.2 10.4 0.00 0.00 0.00 80 1017.5
20260831145704 84 108 5.2 10.4 0.00 0.00 0.00 79 1017.6
20260831145204 84 85 7.0 11.3 0.00 0.00 0.00 80 1017.6
20260831144204 83 89 6.1 10.4 0.00 0.00 0.00 80 1017.6
20260831143705 83 75 5.2 8.7 0.00 0.00 0.00 80 1017.6
20260831143205 83 71 6.1 8.7 0.00 0.00 0.00 81 1017.7
20260831142204 83 71 5.2 7.8 0.00 0.00 0.00 82 1017.6
20260831141704 82 61 4.3 8.7 0.00 0.00 0.00 82 1017.6
20260831141204 82 70 5.2 7.8 0.00 0.00 0.00 82 1017.6
20260831140704 82 85 6.1 8.7 0.00 0.00 0.00 81 1017.7
20260831135704 81 59 4.3 8.7 0.00 0.00 0.00 82 1017.7
20260831135204 81 78 5.2 10.4 0.00 0.00 0.00 84 1017.5
20260831134704 81 61 5.2 7.8 0.00 0.00 0.00 85 1017.5
20260831133704 80 126 4.3 7.0 0.00 0.00 0.00 87 1017.5
20260831133204 80 113 3.5 6.1 0.00 0.00 0.00 88 1017.5
20260831132704 79 69 4.3 5.2 0.00 0.00 0.00 88 1017.6
20260831132204 79 60 3.5 6.1 0.00 0.00 0.00 88 1017.6
20260831131204 79 59 4.3 7.0 0.00 0.00 0.00 90 1017.6
20260831130704 79 73 4.3 5.2 0.00 0.00 0.00 90 1017.6
20260831130204 79 81 3.5 6.1 0.00 0.00 0.00 92 1017.6
20260831125204 78 58 4.3 5.2 0.00 0.00 0.00 92 1017.7
20260831124704 78 58 2.6 7.0 0.00 0.00 0.00 93 1017.6
20260831124204 78 58 6.1 10.4 0.00 0.00 0.00 94 1017.6
20260831123704 78 66 2.6 7.0 0.00 0.00 0.00 94 1017.6
20260831123204 78 46 3.5 6.1 0.00 0.00 0.00 94 1017.7
20260831122704 78 18 3.5 7.8 0.00 0.00 0.00 94 1017.6
20260831122204 78 62 1.7 2.6 0.00 0.00 0.00 95 1017.5
20260831121704 78 65 1.7 2.6 0.00 0.00 0.00 95 1017.6
20260831121204 77 89 1.7 2.6 0.00 0.00 0.00 95 1017.5
20260831120704 77 56 1.7 2.6 0.00 0.00 0.00 95 1017.4
20260831120204 76 15 0.9 2.6 0.00 0.00 0.00 95 1017.5
20260831115704 76 15 1.7 2.6 0.00 0.00 0.00 95 1017.4
20260831114704 76 65 0.9 1.7 0.00 0.00 0.00 94 1017.2
20260831114204 75 65 0.0 0.9 0.00 0.00 0.00 94 1017.1
20260831113203 75 65 1.7 2.6 0.00 0.00 0.00 94 1017.0
20260831112204 75 128 0.0 0.0 0.00 0.00 0.00 94 1016.9
20260831111704 74 128 0.9 1.7 0.00 0.00 0.00 94 1017.0
20260831110704 74 32 0.0 1.7 0.00 0.00 0.00 93 1016.8
20260831110204 74 32 0.0 0.0 0.00 0.00 0.00 93 1016.9
20260831105704 74 32 0.0 0.0 0.00 0.00 0.00 93 1016.7
20260831105204 74 32 0.0 0.9 0.00 0.00 0.00 93 1016.6
20260831104704 74 32 0.9 1.7 0.00 0.00 0.00 93 1016.6
20260831104204 74 32 0.9 1.7 0.00 0.00 0.00 93 1016.5
20260831103703 74 32 0.9 0.9 0.00 0.00 0.00 93 1016.5
20260831103204 74 32 0.9 1.7 0.00 0.00 0.00 93 1016.4
20260831102204 74 42 0.0 1.7 0.00 0.00 0.00 93 1016.3
20260831101204 75 42 0.9 1.7 0.00 0.00 0.00 93 1016.3
20260831100704 75 42 1.7 2.6 0.00 0.00 0.00 93 1016.3
20260831100204 75 352 0.0 0.9 0.00 0.00 0.00 93 1016.3
20260831095704 75 352 0.9 1.7 0.00 0.00 0.00 93 1016.2
20260831095204 75 352 0.0 0.0 0.00 0.00 0.00 93 1016.2
20260831094705 75 352 0.0 0.9 0.00 0.00 0.00 93 1016.2
20260831094205 75 352 0.0 0.0 0.00 0.00 0.00 93 1016.3
20260831093705 74 352 0.0 0.0 0.00 0.00 0.00 93 1016.4
20260831092705 74 352 0.0 0.0 0.00 0.00 0.00 93 1016.4
20260831092206 74 352 0.9 2.6 0.00 0.00 0.00 93 1016.5
20260831091705 75 354 1.7 2.6 0.00 0.00 0.00 93 1016.2
20260831091205 75 44 0.0 0.9 0.00 0.00 0.00 93 1016.1
20260831090705 75 15 0.0 0.9 0.00 0.00 0.00 93 1016.2
20260831090205 75 15 0.0 0.0 0.00 0.00 0.00 93 1016.3
20260831084705 75 15 0.0 1.7 0.00 0.00 0.00 92 1016.5
20260831084205 75 63 0.0 0.0 0.00 0.00 0.00 92 1016.3
20260831083706 75 63 0.0 0.0 0.00 0.00 0.00 92 1016.2
20260831083206 75 63 0.0 0.0 0.00 0.00 0.00 92 1016.2
20260831082705 75 63 0.0 0.0 0.00 0.00 0.00 92 1016.3
20260831082205 75 63 0.0 0.0 0.00 0.00 0.00 92 1016.4
20260831081705 75 63 0.0 0.0 0.00 0.00 0.00 92 1016.5
20260831081205 75 63 0.0 0.0 0.00 0.00 0.00 92 1016.5
20260831080705 75 63 0.0 0.0 0.00 0.00 0.00 92 1016.4
20260831080205 75 63 0.0 0.0 0.00 0.00 0.00 92 1016.5
20260831075705 75 63 0.0 0.0 0.00 0.00 0.00 92 1016.5
20260831075205 75 63 0.0 0.0 0.00 0.00 0.00 92 1016.6
20260831074705 75 63 0.0 0.0 0.00 0.00 0.00 92 1016.6
20260831074205 75 63 0.0 0.9 0.00 0.00 0.00 92 1016.6
20260831073705 75 63 0.0 0.9 0.00 0.00 0.00 92 1016.5
20260831073205 75 63 0.9 0.9 0.00 0.00 0.00 92 1016.6
20260831072705 75 63 0.0 0.9 0.00 0.00 0.00 92 1016.5
20260831072205 75 306 0.0 0.0 0.00 0.00 0.00 92 1016.5
20260831071705 75 306 0.0 0.0 0.00 0.00 0.00 92 1016.4
20260831071205 76 306 0.0 0.9 0.00 0.00 0.00 92 1016.4
20260831070705 75 306 0.0 0.0 0.00 0.00 0.00 92 1016.5
20260831070205 76 306 0.0 0.0 0.00 0.00 0.00 91 1016.6
20260831064705 76 306 0.0 0.0 0.00 0.00 0.00 92 1016.6
20260831064205 76 306 0.0 0.0 0.00 0.00 0.00 91 1016.6
20260831063205 76 306 0.0 0.0 0.00 0.00 0.00 91 1016.6
20260831061705 76 268 0.0 0.0 0.00 0.00 0.00 91 1016.7
20260831061205 76 262 0.0 0.9 0.00 0.00 0.00 91 1016.7
20260831060706 76 294 0.0 0.9 0.00 0.00 0.00 91 1016.7